📊 Raw Sensor Data

Showing records 36876 to 36900 of 84,904 total

ID Distance (ft) Battery V Battery A Int Temp (°F) Int Humid (%) Ext Temp (°F) Solar V RSSI SNR Time Stamp
48041 15.5 3.94 6 64 43 69 5.10 -68 7 08/02/2025 08:00 AM
48040 15.5 4.03 28 62 43 69 4.50 -70 6 08/02/2025 07:45 AM
48039 15.5 3.95 21 61 43 68 4.60 -69 8 08/02/2025 07:30 AM
48038 15.5 3.97 -7 59 43 67 4.50 -70 8 08/02/2025 07:15 AM
48037 15.4 3.89 0 57 43 65 4.50 -68 8 08/02/2025 07:00 AM
48036 15.4 3.88 0 56 43 63 4.50 -69 8 08/02/2025 06:45 AM
48035 15.3 3.93 0 54 44 58 4.50 -69 8 08/02/2025 06:30 AM
48034 15.3 3.90 -34 54 44 55 4.30 -69 8 08/02/2025 06:15 AM
48033 15.3 3.93 -5 54 44 55 2.00 -68 8 08/02/2025 06:00 AM
48032 15.3 3.93 -5 54 44 55 0.00 -69 9 08/02/2025 05:45 AM
48031 15.3 3.93 -5 54 44 55 0.00 -68 8 08/02/2025 05:30 AM
48030 15.4 3.93 -5 54 44 56 0.00 -69 8 08/02/2025 05:15 AM
48029 15.4 3.87 -5 54 44 56 0.00 -69 8 08/02/2025 05:00 AM
48028 15.4 3.87 -5 55 44 56 0.00 -69 8 08/02/2025 04:45 AM
48027 15.4 3.87 -5 55 44 56 0.10 -69 8 08/02/2025 04:30 AM
48026 15.4 3.87 -5 55 44 56 0.00 -69 7 08/02/2025 04:15 AM
48025 15.4 3.87 -5 55 44 57 0.00 -70 8 08/02/2025 03:45 AM
48024 15.4 3.87 -5 55 44 57 0.00 -69 8 08/02/2025 03:30 AM
48023 15.4 3.87 -5 55 44 57 0.00 -69 8 08/02/2025 03:15 AM
48022 15.4 3.87 -5 55 44 57 0.00 -69 8 08/02/2025 03:00 AM
48021 15.4 3.94 -5 55 44 57 0.10 -69 8 08/02/2025 02:45 AM
48020 15.4 3.87 -5 56 44 57 0.00 -70 8 08/02/2025 02:30 AM
48019 15.4 3.87 -5 56 44 57 0.00 -69 8 08/02/2025 02:15 AM
48018 15.4 3.94 -5 56 45 57 0.00 -69 8 08/02/2025 02:00 AM
48017 15.4 3.94 -5 56 45 57 0.00 -68 8 08/02/2025 01:45 AM